Vertical_Velocity
-0 -0 -1 -2 -3 -4 2 2 -4 -5 -0 -3 -1 0 -1 -1 -1 -2 -1 2 2 5
-0 -0 -1 -2 -1 -2 -3 2 3 -1 -5 -0 -2 -0 -2 -1 -1 -2 -1 -1 1 -1
-3 1 1 0 -4 -1 -2 -1 3 2 -3 -4 -1 -2 0 -2 1 -1 -3 -3 0 -1
-4 -2 -1 -0 -1 -2 -1 -1 0 3 1 -4 -3 -1 -1 -1 1 -2 0 -3 1 -4
-2 -2 -2 -1 -0 1 -1 1 -1 1 2 -1 -2 -1 -3 -1 2 -2 -0 -2 -2 -1
-2 -2 -2 -1 -0 -1 -1 0 -1 -0 1 -0 -0 -2 -3 -2 1 -1 -1 -0 -2 -3
-1 -1 -2 -2 -0 -0 0 -2 1 1 -1 -1 -1 -0 -3 -2 -0 1 -2 -0 -1 -4
-1 0 -1 -2 -1 -0 -1 -1 0 0 -1 -1 -0 -2 -2 -4 -2 0 -1 -1 2 -2
-0 0 1 1 -1 -0 1 -1 1 -0 1 -1 1 -1 -3 4 1 -2 -1 -3 -1 1
1 -0 1 1 1 1 -1 1 1 -0 2 -2 -2 3 -1 1 2 -3 -2 -2 -2 -1
2 0 0 1 1 -1 1 1 -1 -2 0 -1 -0 -1 0 1 1 -1 -5 -2 -2 -2
2 -1 1 2 2 4 1 -1 1 -1 -0 -0 -1 3 1 2 -2 -2 -6 -4 1 0
2 5 3 4 1 2 4 -2 -0 -1 -0 1 -2 1 -0 3 0 -2 -1 -0 -2 -1
2 3 4 2 4 3 2 2 1 -0 2 1 2 -1 3 2 4 -0 0 2 -2 1
Height
1475 1471 1466 1461 1455 1451 1447 1443 1440 1437 1435 1432 1430 1428 1426 1424 1423 1422 1420 1419 1419 1419
1468 1463 1459 1454 1449 1444 1440 1436 1434 1431 1428 1425 1424 1422 1420 1418 1417 1416 1415 1413 1411 1411
1462 1457 1452 1447 1442 1437 1433 1429 1426 1423 1421 1419 1416 1415 1414 1412 1410 1410 1408 1407 1406 1405
1454 1448 1443 1438 1434 1430 1425 1422 1418 1416 1413 1412 1410 1409 1407 1406 1404 1403 1403 1403 1400 1399
1446 1440 1435 1430 1426 1422 1418 1415 1411 1408 1406 1404 1403 1402 1400 1398 1398 1396 1396 1395 1394 1393
1439 1433 1427 1422 1418 1414 1410 1407 1404 1401 1398 1397 1395 1394 1393 1391 1390 1389 1388 1388 1387 1386
1432 1426 1420 1415 1410 1406 1402 1398 1395 1393 1391 1389 1387 1386 1385 1383 1382 1381 1381 1381 1381 1381
1425 1419 1413 1407 1402 1398 1394 1390 1387 1384 1382 1381 1379 1378 1376 1375 1374 1373 1373 1373 1374 1375
1418 1411 1405 1399 1394 1390 1386 1382 1379 1376 1375 1373 1371 1370 1370 1370 1369 1367 1366 1365 1366 1367
1412 1405 1398 1392 1387 1382 1378 1375 1371 1369 1367 1365 1363 1362 1362 1362 1361 1360 1359 1359 1358 1357
1406 1399 1392 1386 1380 1375 1371 1368 1364 1361 1359 1357 1355 1354 1355 1355 1354 1353 1351 1350 1350 1349
1401 1393 1387 1381 1375 1370 1365 1361 1358 1355 1352 1350 1348 1348 1346 1347 1346 1345 1343 1341 1340 1340
1397 1390 1383 1376 1370 1365 1360 1356 1352 1349 1346 1344 1341 1340 1339 1340 1339 1337 1335 1333 1331 1331
1395 1387 1380 1373 1367 1362 1356 1352 1349 1345 1342 1339 1337 1335 1334 1332 1332 1330 1328 1326 1324 1323